When you browse on this site, cookies collect data to enhance your experience and personalize the content and advertising you see.
Visit our Privacy Policy to learn more. By continuing to use the site, you agree to this use of cookies and data.
  • In Portugal
  • List of Countries
  • For 7 days
  • Water Temperature
  • Satellite Maps
  • Weather Map
  • Weather Widgets
  • user-avatar
    Login

    Hourly Weather Hrazdan

    Today, 24 May, Friday

    Time Temperature Precipitation Wind Pressure Humidity
    00:00 +10°C° 0.3 mm 2 mps 612 mmHg 86%
    01:00 +10°C° 0.1 mm 2 mps 612 mmHg 86%
    02:00 +10°C° 0.1 mm 2 mps 612 mmHg 86%
    03:00 +9°C° 0 mm 2 mps 612 mmHg 87%
    04:00 +10°C° 0.1 mm 2 mps 612 mmHg 86%
    05:00 +10°C° 0.1 mm 2 mps 612 mmHg 85%
    06:00 +11°C° 0.1 mm 3 mps 612 mmHg 84%
    07:00 +12°C° 0.1 mm 3 mps 613 mmHg 76%
    08:00 +14°C° 0.1 mm 4 mps 613 mmHg 68%
    09:00 +17°C° 0 mm 4 mps 614 mmHg 61%
    10:00 +18°C° 0.2 mm 4 mps 614 mmHg 59%
    11:00 +19°C° 0.2 mm 4 mps 614 mmHg 57%
    12:00 +20°C° 0.2 mm 5 mps 614 mmHg 54%
    13:00 +19°C° 1.2 mm 5 mps 614 mmHg 57%
    14:00 +19°C° 1.2 mm 4 mps 614 mmHg 59%
    15:00 +19°C° 0 mm 5 mps 613 mmHg 60%
    16:00 +18°C° 1.2 mm 4 mps 613 mmHg 64%
    17:00 +17°C° 1.2 mm 3 mps 614 mmHg 68%
    18:00 +17°C° 1.2 mm 2 mps 614 mmHg 71%
    19:00 +15°C° 0.2 mm 2 mps 614 mmHg 73%
    20:00 +14°C° 0.2 mm 2 mps 613 mmHg 75%
    21:00 +12°C° 0.2 mm 1 mps 613 mmHg 77%
    22:00 +12°C° 0.1 mm 1 mps 613 mmHg 74%
    23:00 +12°C° 0.1 mm 1 mps 613 mmHg 72%

    Tomorrow, 25 May, Saturday

    Time Temperature Precipitation Wind Pressure Humidity
    00:00 +12°C° 0.1 mm 1 mps 613 mmHg 70%
    01:00 +10°C° 0 mm 2 mps 613 mmHg 69%
    02:00 +10°C° 0 mm 2 mps 613 mmHg 69%
    03:00 +10°C° 0 mm 2 mps 613 mmHg 68%
    04:00 +12°C° 0 mm 2 mps 614 mmHg 68%
    05:00 +12°C° 0 mm 2 mps 614 mmHg 67%
    06:00 +13°C° 0 mm 2 mps 614 mmHg 66%
    07:00 +15°C° 0 mm 2 mps 615 mmHg 59%
    08:00 +18°C° 0 mm 3 mps 616 mmHg 52%
    09:00 +20°C° 0 mm 3 mps 616 mmHg 46%
    10:00 +21°C° 0 mm 4 mps 616 mmHg 43%
    11:00 +22°C° 0 mm 5 mps 616 mmHg 41%
    12:00 +23°C° 0 mm 6 mps 616 mmHg 39%
    13:00 +23°C° 0 mm 6 mps 616 mmHg 40%
    14:00 +22°C° 0 mm 6 mps 616 mmHg 41%
    15:00 +22°C° 0 mm 5 mps 616 mmHg 43%
    16:00 +21°C° 0.6 mm 4 mps 615 mmHg 51%
    17:00 +19°C° 0.6 mm 3 mps 614 mmHg 60%
    18:00 +17°C° 0.6 mm 2 mps 613 mmHg 68%
    19:00 +16°C° 0.6 mm 2 mps 613 mmHg 70%
    20:00 +14°C° 0.6 mm 1 mps 612 mmHg 72%
    21:00 +12°C° 0.6 mm 1 mps 612 mmHg 74%
    22:00 +12°C° 0.2 mm 1 mps 612 mmHg 75%
    23:00 +11°C° 0.2 mm 1 mps 612 mmHg 77%

    Day after tomorrow, 26 May, Sunday

    Time Temperature Precipitation Wind Pressure Humidity
    00:00 +11°C° 0.2 mm 1 mps 612 mmHg 78%
    01:00 +11°C° 0 mm 1 mps 612 mmHg 77%
    02:00 +10°C° 0 mm 1 mps 612 mmHg 75%
    03:00 +10°C° 0 mm 1 mps 612 mmHg 73%
    04:00 +11°C° 0 mm 1 mps 612 mmHg 72%
    05:00 +12°C° 0 mm 1 mps 612 mmHg 70%
    06:00 +12°C° 0 mm 1 mps 613 mmHg 69%
    07:00 +14°C° 0 mm 2 mps 613 mmHg 60%
    08:00 +16°C° 0 mm 2 mps 614 mmHg 51%
    09:00 +19°C° 0 mm 2 mps 614 mmHg 42%
    10:00 +20°C° 0 mm 3 mps 614 mmHg 40%
    11:00 +21°C° 0 mm 3 mps 614 mmHg 37%
    12:00 +21°C° 0 mm 4 mps 615 mmHg 34%
    13:00 +22°C° 0 mm 4 mps 614 mmHg 36%
    14:00 +22°C° 0 mm 4 mps 614 mmHg 38%
    15:00 +22°C° 0 mm 4 mps 614 mmHg 39%
    16:00 +21°C° 0.4 mm 3 mps 613 mmHg 46%
    17:00 +20°C° 0.4 mm 2 mps 613 mmHg 54%
    18:00 +18°C° 0.4 mm 2 mps 613 mmHg 61%
    19:00 +16°C° 1.2 mm 2 mps 612 mmHg 69%
    20:00 +13°C° 1.2 mm 2 mps 612 mmHg 77%
    21:00 +10°C° 1.2 mm 3 mps 612 mmHg 85%
    22:00 +9°C° 0.4 mm 2 mps 612 mmHg 87%
    23:00 +9°C° 0.4 mm 2 mps 612 mmHg 90%

    27 May, Monday

    Time Temperature Precipitation Wind Pressure Humidity
    00:00 +9°C° 0.4 mm 1 mps 612 mmHg 92%
    01:00 +9°C° 0.2 mm 1 mps 612 mmHg 91%
    02:00 +9°C° 0.2 mm 1 mps 612 mmHg 91%
    03:00 +8°C° 0.2 mm 1 mps 612 mmHg 91%
    04:00 +9°C° 0 mm 1 mps 613 mmHg 87%
    05:00 +10°C° 0 mm 1 mps 613 mmHg 83%
    06:00 +11°C° 0 mm 1 mps 614 mmHg 79%
    07:00 +13°C° 0 mm 1 mps 614 mmHg 71%
    08:00 +14°C° 0 mm 1 mps 615 mmHg 63%
    09:00 +16°C° 0 mm 1 mps 616 mmHg 56%
    10:00 +18°C° 0 mm 1 mps 616 mmHg 52%
    11:00 +18°C° 0 mm 2 mps 616 mmHg 47%
    12:00 +19°C° 0 mm 2 mps 616 mmHg 43%
    13:00 +19°C° 0 mm 2 mps 616 mmHg 42%
    14:00 +19°C° 0 mm 2 mps 616 mmHg 41%
    15:00 +20°C° 0 mm 2 mps 616 mmHg 40%
    16:00 +19°C° 0.2 mm 2 mps 616 mmHg 48%
    17:00 +18°C° 0.2 mm 2 mps 615 mmHg 55%
    18:00 +17°C° 0.2 mm 2 mps 615 mmHg 62%
    19:00 +15°C° 0.9 mm 2 mps 615 mmHg 70%
    20:00 +13°C° 0.9 mm 2 mps 615 mmHg 77%
    21:00 +10°C° 0.9 mm 2 mps 615 mmHg 84%
    22:00 +9°C° 0.4 mm 2 mps 615 mmHg 84%
    23:00 +9°C° 0.4 mm 2 mps 615 mmHg 84%

    28 May, Tuesday

    Time Temperature Precipitation Wind Pressure Humidity
    00:00 +9°C° 0.4 mm 2 mps 615 mmHg 84%
    01:00 +8°C° 0.2 mm 2 mps 615 mmHg 85%
    02:00 +8°C° 0.2 mm 2 mps 615 mmHg 85%
    03:00 +8°C° 0.2 mm 1 mps 614 mmHg 85%
    04:00 +9°C° 0.2 mm 1 mps 615 mmHg 85%
    05:00 +9°C° 0.2 mm 1 mps 615 mmHg 84%
    06:00 +10°C° 0.2 mm 1 mps 616 mmHg 84%
    07:00 +12°C° 0 mm 1 mps 616 mmHg 78%
    08:00 +13°C° 0 mm 1 mps 617 mmHg 73%
    09:00 +15°C° 0 mm 2 mps 617 mmHg 67%
    10:00 +16°C° 0.2 mm 2 mps 617 mmHg 65%
    11:00 +17°C° 0.2 mm 2 mps 617 mmHg 63%
    12:00 +18°C° 0.2 mm 2 mps 617 mmHg 61%
    13:00 +18°C° 0.4 mm 2 mps 617 mmHg 60%
    14:00 +18°C° 0.4 mm 2 mps 617 mmHg 60%
    15:00 +18°C° 0.4 mm 2 mps 617 mmHg 60%
    16:00 +17°C° 0.4 mm 2 mps 616 mmHg 65%
    17:00 +17°C° 0.4 mm 2 mps 616 mmHg 70%
    18:00 +16°C° 0.4 mm 3 mps 616 mmHg 76%
    19:00 +13°C° 0.3 mm 3 mps 616 mmHg 81%
    20:00 +13°C° 0.3 mm 2 mps 616 mmHg 87%
    21:00 +10°C° 0.3 mm 2 mps 616 mmHg 93%
    22:00 +10°C° 0.1 mm 2 mps 616 mmHg 93%
    23:00 +10°C° 0.1 mm 2 mps 615 mmHg 94%

    29 May, Wednesday

    Time Temperature Precipitation Wind Pressure Humidity
    00:00 +9°C° 0.1 mm 2 mps 615 mmHg 94%
    01:00 +9°C° 0 mm 2 mps 615 mmHg 94%
    02:00 +8°C° 0 mm 2 mps 615 mmHg 94%
    03:00 +8°C° 0 mm 2 mps 615 mmHg 94%
    04:00 +9°C° 0 mm 2 mps 615 mmHg 93%
    05:00 +9°C° 0 mm 2 mps 615 mmHg 91%
    06:00 +10°C° 0 mm 2 mps 616 mmHg 90%
    07:00 +12°C° 0 mm 2 mps 616 mmHg 83%
    08:00 +14°C° 0 mm 2 mps 616 mmHg 75%
    09:00 +15°C° 0 mm 2 mps 617 mmHg 68%
    10:00 +16°C° 0 mm 2 mps 617 mmHg 65%
    11:00 +17°C° 0 mm 2 mps 617 mmHg 62%
    12:00 +18°C° 0 mm 2 mps 617 mmHg 58%
    13:00 +18°C° 0.2 mm 2 mps 616 mmHg 59%
    14:00 +19°C° 0.2 mm 2 mps 616 mmHg 59%
    15:00 +19°C° 0.2 mm 2 mps 616 mmHg 60%
    16:00 +18°C° 0.3 mm 2 mps 616 mmHg 65%
    17:00 +17°C° 0.3 mm 2 mps 615 mmHg 70%
    18:00 +16°C° 0.3 mm 3 mps 615 mmHg 75%
    19:00 +15°C° 0.1 mm 2 mps 615 mmHg 80%
    20:00 +13°C° 0.1 mm 2 mps 615 mmHg 86%
    21:00 +12°C° 0.1 mm 2 mps 615 mmHg 92%
    22:00 +10°C° 0 mm 2 mps 614 mmHg 93%
    23:00 +10°C° 0 mm 2 mps 614 mmHg 93%
    Show more